Location: Carrizalito
(10.3833°N, 67.0217°W)
Time: 20:33:27
(UTC+00:00)

VELOX 1 - Pass Details

Date: 06 April 2023
Orbit: 617 x 629 km, 98.4° (Epoch: 09 June)

Event Time Altitude Azimuth Distance (km) Brightness Sun altitude
Rises 23:35:35 0° 340° (NNW) 2,881 ? -14.7°
Maximum altitude 23:40:50 13° 285° (WNW) 1,785 ? -15.9°
Drops below altitude 10° 23:42:49 10° 257° (WSW) 1,983 ? -16.4°
Sets 23:46:07 0° 230° (SW) 2,893 ? -17.2°
